• In Russia
  • List of Countries
  • For 7 days
  • Water Temperature
  • Satellite Maps
  • Weather Map
  • Weather Widgets
  • user-avatar
    Login

    Hourly Weather Darwin

    Today, 22 July, Saturday

    Time Temperature Precipitation Wind Pressure Humidity
    00:00 +24°C° 0 mm 2 mps 761 mmHg 35%
    01:00 +24°C° 0 mm 2 mps 761 mmHg 32%
    02:00 +22°C° 0 mm 3 mps 760 mmHg 30%
    03:00 +22°C° 0 mm 3 mps 760 mmHg 30%
    04:00 +22°C° 0 mm 4 mps 760 mmHg 31%
    05:00 +21°C° 0 mm 4 mps 760 mmHg 32%
    06:00 +21°C° 0 mm 4 mps 760 mmHg 32%
    07:00 +23°C° 0 mm 4 mps 761 mmHg 30%
    08:00 +26°C° 0 mm 4 mps 761 mmHg 28%
    09:00 +28°C° 0 mm 4 mps 761 mmHg 24%
    10:00 +30°C° 0 mm 4 mps 761 mmHg 22%
    11:00 +33°C° 0 mm 4 mps 760 mmHg 20%
    12:00 +36°C° 0 mm 4 mps 760 mmHg 18%
    13:00 +36°C° 0 mm 3 mps 759 mmHg 19%
    14:00 +37°C° 0 mm 3 mps 759 mmHg 19%
    15:00 +37°C° 0 mm 2 mps 758 mmHg 21%
    16:00 +35°C° 0 mm 2 mps 759 mmHg 24%
    17:00 +32°C° 0 mm 2 mps 759 mmHg 28%
    18:00 +30°C° 0 mm 2 mps 759 mmHg 31%
    19:00 +29°C° 0 mm 2 mps 759 mmHg 34%
    20:00 +28°C° 0 mm 2 mps 760 mmHg 38%
    21:00 +26°C° 0 mm 2 mps 760 mmHg 41%
    22:00 +26°C° 0 mm 2 mps 760 mmHg 42%
    23:00 +25°C° 0 mm 2 mps 760 mmHg 42%

    Tomorrow, 23 July, Sunday

    Time Temperature Precipitation Wind Pressure Humidity
    00:00 +25°C° 0 mm 2 mps 760 mmHg 43%
    01:00 +25°C° 0 mm 2 mps 760 mmHg 39%
    02:00 +25°C° 0 mm 2 mps 760 mmHg 36%
    03:00 +24°C° 0 mm 3 mps 760 mmHg 33%
    04:00 +24°C° 0 mm 3 mps 760 mmHg 34%
    05:00 +24°C° 0 mm 3 mps 760 mmHg 35%
    06:00 +24°C° 0 mm 3 mps 760 mmHg 36%
    07:00 +26°C° 0 mm 4 mps 760 mmHg 33%
    08:00 +27°C° 0 mm 4 mps 760 mmHg 29%
    09:00 +29°C° 0 mm 4 mps 760 mmHg 26%
    10:00 +32°C° 0 mm 4 mps 760 mmHg 24%
    11:00 +34°C° 0 mm 4 mps 760 mmHg 21%
    12:00 +37°C° 0 mm 4 mps 759 mmHg 19%
    13:00 +37°C° 0 mm 4 mps 759 mmHg 19%
    14:00 +37°C° 0 mm 4 mps 758 mmHg 20%
    15:00 +38°C° 0 mm 4 mps 757 mmHg 21%
    16:00 +36°C° 0 mm 3 mps 757 mmHg 25%
    17:00 +34°C° 0 mm 3 mps 757 mmHg 29%
    18:00 +32°C° 0 mm 2 mps 758 mmHg 33%
    19:00 +31°C° 0 mm 2 mps 758 mmHg 36%
    20:00 +29°C° 0 mm 2 mps 759 mmHg 39%
    21:00 +28°C° 0 mm 2 mps 759 mmHg 42%
    22:00 +28°C° 0 mm 2 mps 759 mmHg 43%
    23:00 +27°C° 0 mm 2 mps 759 mmHg 44%

    Day after tomorrow, 24 July, Monday

    Time Temperature Precipitation Wind Pressure Humidity
    00:00 +27°C° 0 mm 1 mps 759 mmHg 45%
    01:00 +26°C° 0 mm 1 mps 759 mmHg 43%
    02:00 +26°C° 0 mm 1 mps 759 mmHg 41%
    03:00 +26°C° 0 mm 1 mps 758 mmHg 39%
    04:00 +26°C° 0 mm 2 mps 758 mmHg 42%
    05:00 +26°C° 0 mm 2 mps 758 mmHg 44%
    06:00 +25°C° 0 mm 2 mps 759 mmHg 47%
    07:00 +27°C° 0 mm 3 mps 759 mmHg 43%
    08:00 +28°C° 0 mm 4 mps 759 mmHg 39%
    09:00 +30°C° 0 mm 5 mps 760 mmHg 35%
    10:00 +33°C° 0 mm 5 mps 760 mmHg 32%
    11:00 +35°C° 0 mm 5 mps 759 mmHg 30%
    12:00 +36°C° 0 mm 5 mps 759 mmHg 27%
    13:00 +37°C° 0 mm 5 mps 758 mmHg 27%
    14:00 +39°C° 0 mm 5 mps 757 mmHg 27%
    15:00 +38°C° 0 mm 4 mps 756 mmHg 27%
    16:00 +37°C° 0 mm 4 mps 756 mmHg 31%
    17:00 +35°C° 0 mm 4 mps 757 mmHg 34%
    18:00 +34°C° 0 mm 3 mps 757 mmHg 38%
    19:00 +33°C° 0 mm 3 mps 757 mmHg 43%
    20:00 +30°C° 0 mm 2 mps 758 mmHg 48%
    21:00 +29°C° 0 mm 2 mps 759 mmHg 53%
    22:00 +28°C° 0 mm 2 mps 759 mmHg 54%
    23:00 +27°C° 0 mm 2 mps 759 mmHg 54%

    25 July, Tuesday

    Time Temperature Precipitation Wind Pressure Humidity
    00:00 +27°C° 0 mm 2 mps 759 mmHg 55%
    01:00 +27°C° 0 mm 3 mps 759 mmHg 54%
    02:00 +26°C° 0 mm 3 mps 759 mmHg 53%
    03:00 +26°C° 0 mm 3 mps 758 mmHg 52%
    04:00 +26°C° 0 mm 4 mps 758 mmHg 55%
    05:00 +25°C° 0 mm 4 mps 759 mmHg 58%
    06:00 +25°C° 0 mm 5 mps 759 mmHg 62%
    07:00 +26°C° 0 mm 5 mps 759 mmHg 59%
    08:00 +28°C° 0 mm 6 mps 760 mmHg 57%
    09:00 +29°C° 0 mm 7 mps 760 mmHg 55%
    10:00 +32°C° 0 mm 7 mps 760 mmHg 50%
    11:00 +34°C° 0 mm 7 mps 759 mmHg 45%
    12:00 +36°C° 0 mm 7 mps 759 mmHg 40%
    13:00 +36°C° 0 mm 6 mps 758 mmHg 38%
    14:00 +38°C° 0 mm 6 mps 757 mmHg 36%
    15:00 +37°C° 0 mm 5 mps 756 mmHg 35%
    16:00 +36°C° 0 mm 5 mps 757 mmHg 38%
    17:00 +35°C° 0 mm 4 mps 757 mmHg 42%
    18:00 +34°C° 0 mm 4 mps 757 mmHg 46%
    19:00 +33°C° 0 mm 4 mps 758 mmHg 52%
    20:00 +32°C° 0 mm 4 mps 759 mmHg 58%
    21:00 +30°C° 0 mm 3 mps 759 mmHg 64%
    22:00 +29°C° 0 mm 3 mps 759 mmHg 68%
    23:00 +29°C° 0 mm 3 mps 759 mmHg 71%

    26 July, Wednesday

    Time Temperature Precipitation Wind Pressure Humidity
    00:00 +28°C° 0 mm 4 mps 759 mmHg 75%
    01:00 +28°C° 0 mm 4 mps 759 mmHg 74%
    02:00 +27°C° 0 mm 4 mps 759 mmHg 73%
    03:00 +27°C° 0 mm 4 mps 759 mmHg 72%
    04:00 +26°C° 0 mm 5 mps 759 mmHg 72%
    05:00 +26°C° 0 mm 5 mps 759 mmHg 73%
    06:00 +26°C° 0 mm 5 mps 759 mmHg 73%
    07:00 +27°C° 0 mm 6 mps 760 mmHg 65%
    08:00 +29°C° 0 mm 7 mps 760 mmHg 57%
    09:00 +30°C° 0 mm 7 mps 760 mmHg 49%
    10:00 +33°C° 0 mm 7 mps 760 mmHg 42%
    11:00 +35°C° 0 mm 7 mps 759 mmHg 35%
    12:00 +38°C° 0 mm 6 mps 759 mmHg 28%
    13:00 +39°C° 0 mm 6 mps 758 mmHg 27%
    14:00 +39°C° 0 mm 6 mps 757 mmHg 25%
    15:00 +40°C° 0 mm 5 mps 757 mmHg 23%
    16:00 +37°C° 0 mm 5 mps 757 mmHg 28%
    17:00 +36°C° 0 mm 4 mps 757 mmHg 32%
    18:00 +34°C° 0 mm 4 mps 757 mmHg 36%
    19:00 +33°C° 0 mm 4 mps 758 mmHg 43%
    20:00 +30°C° 0 mm 3 mps 759 mmHg 50%
    21:00 +29°C° 0 mm 3 mps 759 mmHg 57%
    22:00 +28°C° 0 mm 3 mps 759 mmHg 63%
    23:00 +27°C° 0 mm 3 mps 760 mmHg 69%

    27 July, Thursday

    Time Temperature Precipitation Wind Pressure Humidity
    00:00 +27°C° 0 mm 3 mps 760 mmHg 74%
    01:00 +26°C° 0 mm 4 mps 760 mmHg 72%
    02:00 +26°C° 0 mm 4 mps 759 mmHg 70%
    03:00 +25°C° 0 mm 4 mps 759 mmHg 68%
    04:00 +25°C° 0 mm 4 mps 759 mmHg 69%
    05:00 +23°C° 0 mm 4 mps 760 mmHg 70%
    06:00 +23°C° 0 mm 5 mps 760 mmHg 71%
    07:00 +25°C° 0 mm 5 mps 760 mmHg 63%
    08:00 +27°C° 0 mm 6 mps 761 mmHg 56%
    09:00 +29°C° 0 mm 7 mps 761 mmHg 49%
    10:00 +32°C° 0 mm 6 mps 760 mmHg 41%
    11:00 +34°C° 0 mm 6 mps 760 mmHg 33%
    12:00 +36°C° 0 mm 6 mps 759 mmHg 25%
    13:00 +38°C° 0 mm 6 mps 759 mmHg 23%
    14:00 +39°C° 0 mm 5 mps 758 mmHg 22%
    15:00 +39°C° 0 mm 5 mps 757 mmHg 21%
    16:00 +37°C° 0 mm 4 mps 758 mmHg 26%
    17:00 +35°C° 0 mm 3 mps 758 mmHg 30%
    18:00 +33°C° 0 mm 3 mps 758 mmHg 35%
    19:00 +31°C° 0 mm 2 mps 759 mmHg 40%
    20:00 +30°C° 0 mm 2 mps 759 mmHg 45%
    21:00 +28°C° 0 mm 2 mps 760 mmHg 50%
    22:00 +28°C° 0 mm 2 mps 760 mmHg 53%
    23:00 +27°C° 0 mm 2 mps 760 mmHg 56%
    Show more